Find Local Weather

World > North America > United States > New Hampshire

New Castle, New Hampshire Regional Weather

Lat: 43.07N, Lon: 70.72W
Wx Zone: NHZ014
Warning FLW WEATHER ALERT - (More Info. Click Here) Warning
Feedback
Expires:201808142000;;061097
ASUS41 KBOX 141910
RWRBOX

REGIONAL WEATHER ROUNDUP
NATIONAL WEATHER SERVICE BOSTON/NORTON MA
300 PM EDT TUE AUG 14 2018

NOTE:  "FAIR" INDICATES FEW OR NO CLOUDS BELOW 12,000 FEET WITH NO 
SIGNIFICANT WEATHER AND/OR OBSTRUCTIONS TO VISIBILITY.


MEZ002-015-021-024-NHZ003-005-008-011-012-014-VTZ005-008-142000-
NORTHERN NEW ENGLAND
  
CITY           SKY/WX    TMP DP  RH WIND       PRES   REMARKS
PORTLAND ME    PTSUNNY   74  70  87 NE7       29.89F                  
BANGOR ME      CLOUDY    78  71  79 S9        29.90F                  
CONCORD NH     FAIR      78  69  73 SE6       29.86F                  
MANCHESTER NH  TSTM      70  67  90 W13G21    29.89R VSB 3/4          
NASHUA NH      CLOUDY    70  70 100 CALM      29.90R                  
PORTSMOUTH NH  MOSUNNY   78  71  80 E9        29.86                   
JAFFREY NH     PTSUNNY   69  66  90 CALM      29.92R                  
KEENE NH       FAIR     N/A N/A N/A VRB6      29.87R                  
BURLINGTON VT  FAIR      86  65  49 S9        29.81F                  
MT. WASHINGTON PTSUNNY   57  54  88 SW21        N/A                   
$$


SKY/WX - Weather  TMP - Temperature  DP - Dewpoint  RH - Relative Humidity
WIND - Wind Direction/Speed PRES - Barometric Pressure